Lid_Strength_Index
-1 -1 -1 2 7 7 9 9 6 7 6 5 4 5 6 6 8 10 1 -0 -0 -0 -1 -1 -2 -2 -2 -2 -2 -2 -2 -2 -2 -2 -2 -2 -2 -2 -2 -2 -2 -2 -2 -2 -2 -2 -2 -2 -2
-1 0 1 4 9 10 9 7 7 6 5 4 4 4 5 8 4 3 2 -0 -1 -1 -1 -1 -2 -2 -2 -2 -2 -2 -2 -2 -2 -2 -2 -2 -2 -2 -2 -2 -2 -2 -2 -2 -2 -2 -2 -2 -2
-0 0 4 6 8 10 9 7 6 5 5 5 6 4 5 6 3 2 0 -0 -1 -1 -1 -1 -2 -2 -2 -2 -2 -2 -2 -2 -2 -2 -2 -2 -2 -2 -2 -2 -2 -2 -2 -2 -2 -2 -2 -2 -2
1 2 3 8 9 7 7 6 5 6 6 5 5 6 4 2 3 1 -0 -1 -0 -1 -1 -2 -2 -2 -2 -2 -2 -2 -2 -2 -2 -2 -1 -1 -2 -2 -2 -2 -2 -2 -2 -2 -2 -2 -2 -2 -2
1 3 7 8 8 7 6 5 5 6 6 6 5 6 6 2 1 0 -0 -0 -0 -0 -1 -1 -2 -2 -2 -2 -2 -2 -1 -1 -1 -1 -1 -1 -1 -2 -2 -2 -2 -2 -2 -2 -2 -2 -2 -2 -2
4 4 9 10 9 7 6 5 5 5 6 6 5 6 6 1 1 1 -0 -0 -1 -0 -1 -1 -2 -2 -2 -2 -1 -1 -1 -1 -1 -1 -2 -2 -1 -2 -2 -2 -2 -2 -2 -2 -2 -2 -2 -2 -2
6 7 9 9 9 8 6 5 5 6 6 6 4 6 5 3 1 0 -0 -0 -1 -1 -1 -1 -1 -1 -1 -1 -0 0 0 -1 0 0 -0 -1 -1 -2 -2 -2 -2 -2 -2 -2 -2 -2 -2 -2 -2
4 6 9 9 9 9 6 6 5 5 6 4 4 6 7 3 1 0 -0 -0 -0 -0 -1 -1 -1 -1 -0 1 1 1 1 2 2 2 1 0 -1 -1 -1 -2 -2 -2 -2 -2 -2 -2 -2 -1 -1
4 8 10 9 9 8 6 7 6 6 6 6 5 4 3 2 1 1 1 1 1 0 -0 0 0 -0 -0 1 2 2 3 4 4 2 2 1 -0 -0 -0 -1 -0 -1 -2 -2 -2 -1 -0 -0 1
6 8 8 7 7 7 7 6 6 7 7 7 5 3 2 2 2 3 3 3 2 1 1 1 1 0 1 3 3 4 5 5 5 3 2 1 1 1 1 1 1 -0 -1 -1 -0 1 -0 -2 0
7 8 7 8 6 6 7 7 6 7 7 6 6 5 3 3 3 3 3 2 2 1 1 1 1 1 2 4 4 4 5 5 5 4 3 2 1 1 1 2 4 2 1 0 -0 -0 -0 -0 1
9 7 7 7 7 7 7 6 8 6 7 5 5 3 3 4 4 3 3 2 2 1 1 0 1 1 3 4 5 5 5 5 5 4 4 3 3 3 3 4 4 2 1 1 1 1 1 1 1
9 8 7 7 7 8 7 8 7 7 6 6 3 3 4 4 3 2 2 1 1 1 1 1 1 2 4 5 5 5 5 5 5 4 4 4 5 5 4 5 4 3 2 2 2 2 2 2 2
7 7 8 8 8 8 9 8 8 6 6 5 4 4 4 4 3 3 2 2 2 1 1 1 1 2 4 5 5 5 5 5 5 4 4 4 5 5 5 5 5 3 3 3 3 3 4 4 4
8 9 9 9 8 8 8 10 9 7 6 6 5 4 4 3 3 3 2 2 1 1 1 1 2 3 5 5 5 5 5 5 5 5 4 5 5 5 5 5 5 4 4 4 5 5 6 6 7
9 9 11 8 8 8 8 10 8 7 7 6 5 4 4 4 3 2 2 1 1 1 1 1 2 4 5 5 5 5 5 5 5 5 4 5 5 5 5 5 5 4 4 5 5 6 6 7 7
9 11 10 10 8 8 9 9 8 7 7 6 5 5 5 4 4 2 2 1 1 1 1 2 3 4 4 5 5 5 5 5 5 5 4 5 5 5 5 5 5 5 5 5 6 6 6 7 7
11 11 10 10 9 9 9 9 8 8 7 6 6 5 5 5 4 3 2 1 1 1 1 1 3 4 4 4 5 5 5 5 5 5 4 5 5 5 5 5 5 5 5 6 6 6 6 7 7
10 10 10 9 9 9 9 8 8 8 7 7 6 5 5 5 3 2 2 1 1 1 1 2 3 4 4 5 5 6 6 6 6 5 5 5 5 5 5 5 5 5 6 6 6 6 7 7 7
11 11 11 10 10 10 9 9 7 7 7 7 7 6 5 4 4 3 2 2 2 2 2 2 3 4 4 4 4 4 5 5 5 5 5 5 5 5 5 5 6 5 6 6 7 6 7 7 6
11 12 11 11 10 10 11 10 9 9 8 9 9 7 6 5 4 4 3 2 2 2 2 2 3 4 4 4 4 5 5 5 6 6 6 5 5 5 5 5 6 6 6 6 6 6 6 7 7
13 10 10 11 11 14 11 15 9 9 10 10 9 8 8 7 5 4 3 3 2 2 1 1 2 3 4 4 5 5 6 7 6 6 5 6 5 5 5 4 5 5 5 6 6 5 5 4 6
12 10 11 11 11 12 12 16 10 10 11 11 9 9 8 8 7 5 3 3 2 1 2 2 2 3 4 4 4 4 5 5 5 5 6 6 6 5 5 5 4 5 5 5 5 5 5 5 5
11 11 11 11 12 18 13 13 12 12 11 10 10 10 9 8 7 6 4 2 2 2 2 2 2 3 4 4 4 4 4 5 6 6 6 6 6 6 5 5 5 4 5 5 5 5 5 5 5
11 11 17 18 18 17 15 15 12 12 11 10 10 10 9 8 7 6 5 4 3 3 3 3 3 4 4 4 4 4 4 4 5 5 6 6 6 6 6 6 5 5 5 5 5 5 5 5 6
12 12 17 18 17 16 15 17 13 12 12 11 10 10 9 8 7 6 5 4 4 4 4 4 3 4 4 4 4 4 4 4 5 5 5 5 6 6 5 6 5 5 5 5 5 5 5 5 5
12 14 11 15 15 15 14 13 14 13 13 12 11 10 10 9 8 7 6 5 4 4 4 4 4 4 4 4 4 4 4 5 5 5 4 5 5 5 6 6 6 6 6 6 6 7 6 7 6
12 11 14 14 19 18 15 14 13 15 14 12 12 11 11 9 9 8 7 6 5 5 4 4 4 4 4 4 4 4 5 4 4 4 5 5 5 5 6 6 6 6 7 7 7 7 7 7 7
14 14 13 12 14 17 16 15 13 12 12 12 11 11 11 10 10 9 8 7 7 6 6 5 5 5 6 6 6 6 5 5 6 6 6 5 5 6 6 6 7 7 7 7 7 7 7 8 8
13 12 12 14 17 16 16 15 12 11 11 11 11 11 10 10 10 9 9 8 8 8 7 7 7 7 7 7 6 6 6 6 6 6 6 5 6 6 6 6 7 7 8 8 8 8 8 8 8